owner,sensor,date,latitude,longitude,vertical_datum,sea_water_temperature,qcFlag 
SCCF RECON,ioos:station:SCCF:18:1,2015-12-17T21:00:00Z,26.6955,-81.8138,1.49,25.91,2 
SCCF RECON,ioos:station:SCCF:18:1,2015-12-17T22:00:00Z,26.6955,-81.8138,1.49,27.23,2 
SCCF RECON,ioos:station:SCCF:18:1,2015-12-17T23:00:00Z,26.6955,-81.8138,1.49,26.89,2 
SCCF RECON,ioos:station:SCCF:18:1,2015-12-18T00:00:00Z,26.6955,-81.8138,1.49,27.21,2 
SCCF RECON,ioos:station:SCCF:18:1,2015-12-18T01:00:00Z,26.6955,-81.8138,1.49,27.1,2 
SCCF RECON,ioos:station:SCCF:18:1,2015-12-18T02:00:00Z,26.6955,-81.8138,1.49,26.98,2 
SCCF RECON,ioos:station:SCCF:18:1,2015-12-18T03:00:00Z,26.6955,-81.8138,1.49,27.05,2 
SCCF RECON,ioos:station:SCCF:18:1,2015-12-18T04:00:00Z,26.6955,-81.8138,1.49,26.77,2 
SCCF RECON,ioos:station:SCCF:18:1,2015-12-18T05:00:00Z,26.6955,-81.8138,1.49,26.91,2 
SCCF RECON,ioos:station:SCCF:18:1,2015-12-18T06:00:00Z,26.6955,-81.8138,1.49,26.91,2 
SCCF RECON,ioos:station:SCCF:18:1,2015-12-18T07:00:00Z,26.6955,-81.8138,1.49,27.06,2 
SCCF RECON,ioos:station:SCCF:18:1,2015-12-18T08:00:00Z,26.6955,-81.8138,1.49,26.59,2 
SCCF RECON,ioos:station:SCCF:18:1,2015-12-18T09:00:00Z,26.6955,-81.8138,1.49,25.28,2 
SCCF RECON,ioos:station:SCCF:18:1,2015-12-18T10:00:00Z,26.6955,-81.8138,1.49,26.69,2 
SCCF RECON,ioos:station:SCCF:18:1,2015-12-18T11:00:00Z,26.6955,-81.8138,1.49,26.86,2 
SCCF RECON,ioos:station:SCCF:18:1,2015-12-18T12:00:00Z,26.6955,-81.8138,1.49,26.62,2 
SCCF RECON,ioos:station:SCCF:18:1,2015-12-18T13:00:00Z,26.6955,-81.8138,1.49,26.57,2 
SCCF RECON,ioos:station:SCCF:18:1,2015-12-18T14:00:00Z,26.6955,-81.8138,1.49,26.4,2 
SCCF RECON,ioos:station:SCCF:18:1,2015-12-18T15:00:00Z,26.6955,-81.8138,1.49,26.66,2 
SCCF RECON,ioos:station:SCCF:18:1,2015-12-18T16:00:00Z,26.6955,-81.8138,1.49,26.92,2 
SCCF RECON,ioos:station:SCCF:18:1,2015-12-18T17:00:00Z,26.6955,-81.8138,1.49,27.16,2 
SCCF RECON,ioos:station:SCCF:18:1,2015-12-18T18:00:00Z,26.6955,-81.8138,1.49,25.85,2 
SCCF RECON,ioos:station:SCCF:18:1,2015-12-18T19:00:00Z,26.6955,-81.8138,1.49,26.33,2 
SCCF RECON,ioos:station:SCCF:18:1,2015-12-18T20:00:00Z,26.6955,-81.8138,1.49,26.93,2 
SCCF RECON,ioos:station:SCCF:18:1,2015-12-18T21:00:00Z,26.6955,-81.8138,1.49,25.72,2 
SCCF RECON,ioos:station:SCCF:18:1,2015-12-18T22:00:00Z,26.6955,-81.8138,1.49,25.57,2 
SCCF RECON,ioos:station:SCCF:18:1,2015-12-18T23:00:00Z,26.6955,-81.8138,1.49,25.16,2 
SCCF RECON,ioos:station:SCCF:18:1,2015-12-19T00:00:00Z,26.6955,-81.8138,1.49,24.83,2 
SCCF RECON,ioos:station:SCCF:18:1,2015-12-19T01:00:00Z,26.6955,-81.8138,1.49,25.37,2 
SCCF RECON,ioos:station:SCCF:18:1,2015-12-19T02:00:00Z,26.6955,-81.8138,1.49,25.28,2 
SCCF RECON,ioos:station:SCCF:18:1,2015-12-19T03:00:00Z,26.6955,-81.8138,1.49,24.85,2 
SCCF RECON,ioos:station:SCCF:18:1,2015-12-19T04:00:00Z,26.6955,-81.8138,1.49,25.17,2 
SCCF RECON,ioos:station:SCCF:18:1,2015-12-19T05:00:00Z,26.6955,-81.8138,1.49,25.46,2 
SCCF RECON,ioos:station:SCCF:18:1,2015-12-19T06:00:00Z,26.6955,-81.8138,1.49,24.81,2 
SCCF RECON,ioos:station:SCCF:18:1,2015-12-19T07:00:00Z,26.6955,-81.8138,1.49,24.92,2 
SCCF RECON,ioos:station:SCCF:18:1,2015-12-19T08:00:00Z,26.6955,-81.8138,1.49,25.38,2 
SCCF RECON,ioos:station:SCCF:18:1,2015-12-19T09:00:00Z,26.6955,-81.8138,1.49,24.74,2 
SCCF RECON,ioos:station:SCCF:18:1,2015-12-19T10:00:00Z,26.6955,-81.8138,1.49,24.27,2 
SCCF RECON,ioos:station:SCCF:18:1,2015-12-19T11:00:00Z,26.6955,-81.8138,1.49,24.03,2 
SCCF RECON,ioos:station:SCCF:18:1,2015-12-19T12:00:00Z,26.6955,-81.8138,1.49,23.47,2 
SCCF RECON,ioos:station:SCCF:18:1,2015-12-19T13:00:00Z,26.6955,-81.8138,1.49,23.81,2 
SCCF RECON,ioos:station:SCCF:18:1,2015-12-19T14:00:00Z,26.6955,-81.8138,1.49,23.51,2 
SCCF RECON,ioos:station:SCCF:18:1,2015-12-19T15:00:00Z,26.6955,-81.8138,1.49,23.52,2 
SCCF RECON,ioos:station:SCCF:18:1,2015-12-19T16:00:00Z,26.6955,-81.8138,1.49,23.49,2 
SCCF RECON,ioos:station:SCCF:18:1,2015-12-19T17:00:00Z,26.6955,-81.8138,1.49,23.59,2 
SCCF RECON,ioos:station:SCCF:18:1,2015-12-19T18:00:00Z,26.6955,-81.8138,1.49,23.85,2 
SCCF RECON,ioos:station:SCCF:18:1,2015-12-19T19:00:00Z,26.6955,-81.8138,1.49,23.86,2 
SCCF RECON,ioos:station:SCCF:18:1,2015-12-19T20:00:00Z,26.6955,-81.8138,1.49,23.84,2 
SCCF RECON,ioos:station:SCCF:18:1,2015-12-19T21:00:00Z,26.6955,-81.8138,1.49,23.96,2 
SCCF RECON,ioos:station:SCCF:18:1,2015-12-19T22:00:00Z,26.6955,-81.8138,1.49,23.74,2 
SCCF RECON,ioos:station:SCCF:18:1,2015-12-19T23:00:00Z,26.6955,-81.8138,1.49,23.61,2 
SCCF RECON,ioos:station:SCCF:18:1,2015-12-20T00:00:00Z,26.6955,-81.8138,1.49,23.46,2 
SCCF RECON,ioos:station:SCCF:18:1,2015-12-20T01:00:00Z,26.6955,-81.8138,1.49,22.76,2 
SCCF RECON,ioos:station:SCCF:18:1,2015-12-20T02:00:00Z,26.6955,-81.8138,1.49,22.81,2 
SCCF RECON,ioos:station:SCCF:18:1,2015-12-20T03:00:00Z,26.6955,-81.8138,1.49,22.64,2 
SCCF RECON,ioos:station:SCCF:18:1,2015-12-20T04:00:00Z,26.6955,-81.8138,1.49,22.5,2 
SCCF RECON,ioos:station:SCCF:18:1,2015-12-20T05:00:00Z,26.6955,-81.8138,1.49,22.15,2 
SCCF RECON,ioos:station:SCCF:18:1,2015-12-20T06:00:00Z,26.6955,-81.8138,1.49,22.19,2 
SCCF RECON,ioos:station:SCCF:18:1,2015-12-20T07:00:00Z,26.6955,-81.8138,1.49,22.67,2 
SCCF RECON,ioos:station:SCCF:18:1,2015-12-20T08:00:00Z,26.6955,-81.8138,1.49,22.95,2 
SCCF RECON,ioos:station:SCCF:18:1,2015-12-20T09:00:00Z,26.6955,-81.8138,1.49,22.7,2 
SCCF RECON,ioos:station:SCCF:18:1,2015-12-20T10:00:00Z,26.6955,-81.8138,1.49,22.41,2 
SCCF RECON,ioos:station:SCCF:18:1,2015-12-20T11:00:00Z,26.6955,-81.8138,1.49,22.44,2 
SCCF RECON,ioos:station:SCCF:18:1,2015-12-20T12:00:00Z,26.6955,-81.8138,1.49,22.33,2 
SCCF RECON,ioos:station:SCCF:18:1,2015-12-20T13:00:00Z,26.6955,-81.8138,1.49,22.79,2 
SCCF RECON,ioos:station:SCCF:18:1,2015-12-20T14:00:00Z,26.6955,-81.8138,1.49,22.46,2 
SCCF RECON,ioos:station:SCCF:18:1,2015-12-20T15:00:00Z,26.6955,-81.8138,1.49,22.33,2 
SCCF RECON,ioos:station:SCCF:18:1,2015-12-20T16:00:00Z,26.6955,-81.8138,1.49,22.51,2 
SCCF RECON,ioos:station:SCCF:18:1,2015-12-20T17:00:00Z,26.6955,-81.8138,1.49,22.71,2 
SCCF RECON,ioos:station:SCCF:18:1,2015-12-20T18:00:00Z,26.6955,-81.8138,1.49,22.85,2 
SCCF RECON,ioos:station:SCCF:18:1,2015-12-20T19:00:00Z,26.6955,-81.8138,1.49,23.33,2 
SCCF RECON,ioos:station:SCCF:18:1,2015-12-20T20:00:00Z,26.6955,-81.8138,1.49,23.49,2 
SCCF RECON,ioos:station:SCCF:18:1,2015-12-20T21:00:00Z,26.6955,-81.8138,1.49,23.81,2 
SCCF RECON,ioos:station:SCCF:18:1,2015-12-20T22:00:00Z,26.6955,-81.8138,1.49,23.53,2 
SCCF RECON,ioos:station:SCCF:18:1,2015-12-20T23:00:00Z,26.6955,-81.8138,1.49,23.44,2 
SCCF RECON,ioos:station:SCCF:18:1,2015-12-21T00:00:00Z,26.6955,-81.8138,1.49,23.48,2 
SCCF RECON,ioos:station:SCCF:18:1,2015-12-21T01:00:00Z,26.6955,-81.8138,1.49,22.98,2 
SCCF RECON,ioos:station:SCCF:18:1,2015-12-21T02:00:00Z,26.6955,-81.8138,1.49,23.2,2 
SCCF RECON,ioos:station:SCCF:18:1,2015-12-21T03:00:00Z,26.6955,-81.8138,1.49,22.86,2 
SCCF RECON,ioos:station:SCCF:18:1,2015-12-21T04:00:00Z,26.6955,-81.8138,1.49,22.77,2 
SCCF RECON,ioos:station:SCCF:18:1,2015-12-21T05:00:00Z,26.6955,-81.8138,1.49,22.47,2 
SCCF RECON,ioos:station:SCCF:18:1,2015-12-21T06:00:00Z,26.6955,-81.8138,1.49,22.82,2 
SCCF RECON,ioos:station:SCCF:18:1,2015-12-21T07:00:00Z,26.6955,-81.8138,1.49,23.39,2 
SCCF RECON,ioos:station:SCCF:18:1,2015-12-21T08:00:00Z,26.6955,-81.8138,1.49,23.15,2 
SCCF RECON,ioos:station:SCCF:18:1,2015-12-21T09:00:00Z,26.6955,-81.8138,1.49,23.0,2 
SCCF RECON,ioos:station:SCCF:18:1,2015-12-21T10:00:00Z,26.6955,-81.8138,1.49,23.24,2 
SCCF RECON,ioos:station:SCCF:18:1,2015-12-21T11:00:00Z,26.6955,-81.8138,1.49,22.23,2 
SCCF RECON,ioos:station:SCCF:18:1,2015-12-21T12:00:00Z,26.6955,-81.8138,1.49,22.19,2 
SCCF RECON,ioos:station:SCCF:18:1,2015-12-21T13:00:00Z,26.6955,-81.8138,1.49,22.47,2 
SCCF RECON,ioos:station:SCCF:18:1,2015-12-21T14:00:00Z,26.6955,-81.8138,1.49,22.45,2 
SCCF RECON,ioos:station:SCCF:18:1,2015-12-21T15:00:00Z,26.6955,-81.8138,1.49,22.0,2 
SCCF RECON,ioos:station:SCCF:18:1,2015-12-21T16:00:00Z,26.6955,-81.8138,1.49,22.65,2 
SCCF RECON,ioos:station:SCCF:18:1,2015-12-21T17:00:00Z,26.6955,-81.8138,1.49,22.97,2 
SCCF RECON,ioos:station:SCCF:18:1,2015-12-21T18:00:00Z,26.6955,-81.8138,1.49,23.19,2 
SCCF RECON,ioos:station:SCCF:18:1,2015-12-21T19:00:00Z,26.6955,-81.8138,1.49,23.45,2 
SCCF RECON,ioos:station:SCCF:18:1,2015-12-21T20:00:00Z,26.6955,-81.8138,1.49,23.65,2 
SCCF RECON,ioos:station:SCCF:18:1,2015-12-21T21:00:00Z,26.6955,-81.8138,1.49,23.58,2 
SCCF RECON,ioos:station:SCCF:18:1,2015-12-21T22:00:00Z,26.6955,-81.8138,1.49,24.1,2 
SCCF RECON,ioos:station:SCCF:18:1,2015-12-21T23:00:00Z,26.6955,-81.8138,1.49,24.55,2 
SCCF RECON,ioos:station:SCCF:18:1,2015-12-22T00:00:00Z,26.6955,-81.8138,1.49,24.37,2 
SCCF RECON,ioos:station:SCCF:18:1,2015-12-22T01:00:00Z,26.6955,-81.8138,1.49,23.4,2 
SCCF RECON,ioos:station:SCCF:18:1,2015-12-22T02:00:00Z,26.6955,-81.8138,1.49,23.39,2 
SCCF RECON,ioos:station:SCCF:18:1,2015-12-22T03:00:00Z,26.6955,-81.8138,1.49,23.51,2 
SCCF RECON,ioos:station:SCCF:18:1,2015-12-22T04:00:00Z,26.6955,-81.8138,1.49,23.05,2 
SCCF RECON,ioos:station:SCCF:18:1,2015-12-22T05:00:00Z,26.6955,-81.8138,1.49,22.79,2 
SCCF RECON,ioos:station:SCCF:18:1,2015-12-22T06:00:00Z,26.6955,-81.8138,1.49,23.1,2 
SCCF RECON,ioos:station:SCCF:18:1,2015-12-22T07:00:00Z,26.6955,-81.8138,1.49,23.45,2 
SCCF RECON,ioos:station:SCCF:18:1,2015-12-22T08:00:00Z,26.6955,-81.8138,1.49,24.07,2 
SCCF RECON,ioos:station:SCCF:18:1,2015-12-22T09:00:00Z,26.6955,-81.8138,1.49,23.96,2 
SCCF RECON,ioos:station:SCCF:18:1,2015-12-22T10:00:00Z,26.6955,-81.8138,1.49,24.01,2 
SCCF RECON,ioos:station:SCCF:18:1,2015-12-22T11:00:00Z,26.6955,-81.8138,1.49,24.36,2 
SCCF RECON,ioos:station:SCCF:18:1,2015-12-22T12:00:00Z,26.6955,-81.8138,1.49,23.77,2 
SCCF RECON,ioos:station:SCCF:18:1,2015-12-22T13:00:00Z,26.6955,-81.8138,1.49,23.69,2 
SCCF RECON,ioos:station:SCCF:18:1,2015-12-22T14:00:00Z,26.6955,-81.8138,1.49,23.27,2 
SCCF RECON,ioos:station:SCCF:18:1,2015-12-22T15:00:00Z,26.6955,-81.8138,1.49,24.32,2 
SCCF RECON,ioos:station:SCCF:18:1,2015-12-22T16:00:00Z,26.6955,-81.8138,1.49,24.77,2 
SCCF RECON,ioos:station:SCCF:18:1,2015-12-22T17:00:00Z,26.6955,-81.8138,1.49,24.88,2 
SCCF RECON,ioos:station:SCCF:18:1,2015-12-22T18:00:00Z,26.6955,-81.8138,1.49,24.87,2 
SCCF RECON,ioos:station:SCCF:18:1,2015-12-22T19:00:00Z,26.6955,-81.8138,1.49,25.09,2 
SCCF RECON,ioos:station:SCCF:18:1,2015-12-22T20:00:00Z,26.6955,-81.8138,1.49,24.59,2 
SCCF RECON,ioos:station:SCCF:18:1,2015-12-22T21:00:00Z,26.6955,-81.8138,1.49,25.07,2 
SCCF RECON,ioos:station:SCCF:18:1,2015-12-22T22:00:00Z,26.6955,-81.8138,1.49,25.23,2 
SCCF RECON,ioos:station:SCCF:18:1,2015-12-22T23:00:00Z,26.6955,-81.8138,1.49,25.3,2 
SCCF RECON,ioos:station:SCCF:18:1,2015-12-23T00:00:00Z,26.6955,-81.8138,1.49,24.22,2 
SCCF RECON,ioos:station:SCCF:18:1,2015-12-23T01:00:00Z,26.6955,-81.8138,1.49,23.82,2 
SCCF RECON,ioos:station:SCCF:18:1,2015-12-23T02:00:00Z,26.6955,-81.8138,1.49,24.65,2 
SCCF RECON,ioos:station:SCCF:18:1,2015-12-23T03:00:00Z,26.6955,-81.8138,1.49,24.74,2 
SCCF RECON,ioos:station:SCCF:18:1,2015-12-23T04:00:00Z,26.6955,-81.8138,1.49,24.64,2 
SCCF RECON,ioos:station:SCCF:18:1,2015-12-23T05:00:00Z,26.6955,-81.8138,1.49,24.4,2 
SCCF RECON,ioos:station:SCCF:18:1,2015-12-23T06:00:00Z,26.6955,-81.8138,1.49,24.28,2 
SCCF RECON,ioos:station:SCCF:18:1,2015-12-23T07:00:00Z,26.6955,-81.8138,1.49,24.26,2 
SCCF RECON,ioos:station:SCCF:18:1,2015-12-23T08:00:00Z,26.6955,-81.8138,1.49,24.62,2 
SCCF RECON,ioos:station:SCCF:18:1,2015-12-23T09:00:00Z,26.6955,-81.8138,1.49,25.28,2 
SCCF RECON,ioos:station:SCCF:18:1,2015-12-23T10:00:00Z,26.6955,-81.8138,1.49,25.04,2 
SCCF RECON,ioos:station:SCCF:18:1,2015-12-23T11:00:00Z,26.6955,-81.8138,1.49,24.93,2 
SCCF RECON,ioos:station:SCCF:18:1,2015-12-23T12:00:00Z,26.6955,-81.8138,1.49,25.24,2 
SCCF RECON,ioos:station:SCCF:18:1,2015-12-23T13:00:00Z,26.6955,-81.8138,1.49,24.91,2 
SCCF RECON,ioos:station:SCCF:18:1,2015-12-23T14:00:00Z,26.6955,-81.8138,1.49,25.21,2 
SCCF RECON,ioos:station:SCCF:18:1,2015-12-23T15:00:00Z,26.6955,-81.8138,1.49,24.82,2 
SCCF RECON,ioos:station:SCCF:18:1,2015-12-23T16:00:00Z,26.6955,-81.8138,1.49,25.32,2 
SCCF RECON,ioos:station:SCCF:18:1,2015-12-23T17:00:00Z,26.6955,-81.8138,1.49,25.34,2 
SCCF RECON,ioos:station:SCCF:18:1,2015-12-23T18:00:00Z,26.6955,-81.8138,1.49,25.81,2 
SCCF RECON,ioos:station:SCCF:18:1,2015-12-23T19:00:00Z,26.6955,-81.8138,1.49,25.9,2 
SCCF RECON,ioos:station:SCCF:18:1,2015-12-23T20:00:00Z,26.6955,-81.8138,1.49,25.82,2 
SCCF RECON,ioos:station:SCCF:18:1,2015-12-23T21:00:00Z,26.6955,-81.8138,1.49,25.56,2 
SCCF RECON,ioos:station:SCCF:18:1,2015-12-23T22:00:00Z,26.6955,-81.8138,1.49,25.72,2 
SCCF RECON,ioos:station:SCCF:18:1,2015-12-23T23:00:00Z,26.6955,-81.8138,1.49,25.95,2 
SCCF RECON,ioos:station:SCCF:18:1,2015-12-24T00:00:00Z,26.6955,-81.8138,1.49,25.99,2 
SCCF RECON,ioos:station:SCCF:18:1,2015-12-24T01:00:00Z,26.6955,-81.8138,1.49,25.85,2 
SCCF RECON,ioos:station:SCCF:18:1,2015-12-24T02:00:00Z,26.6955,-81.8138,1.49,25.29,2 
SCCF RECON,ioos:station:SCCF:18:1,2015-12-24T03:00:00Z,26.6955,-81.8138,1.49,25.63,2 
SCCF RECON,ioos:station:SCCF:18:1,2015-12-24T04:00:00Z,26.6955,-81.8138,1.49,25.47,2 
SCCF RECON,ioos:station:SCCF:18:1,2015-12-24T05:00:00Z,26.6955,-81.8138,1.49,25.59,2 
SCCF RECON,ioos:station:SCCF:18:1,2015-12-24T06:00:00Z,26.6955,-81.8138,1.49,25.24,2 
SCCF RECON,ioos:station:SCCF:18:1,2015-12-24T07:00:00Z,26.6955,-81.8138,1.49,25.13,2 
SCCF RECON,ioos:station:SCCF:18:1,2015-12-24T08:00:00Z,26.6955,-81.8138,1.49,25.21,2 
SCCF RECON,ioos:station:SCCF:18:1,2015-12-24T09:00:00Z,26.6955,-81.8138,1.49,25.46,2 
SCCF RECON,ioos:station:SCCF:18:1,2015-12-24T10:00:00Z,26.6955,-81.8138,1.49,25.88,2 
SCCF RECON,ioos:station:SCCF:18:1,2015-12-24T11:00:00Z,26.6955,-81.8138,1.49,25.81,2 
SCCF RECON,ioos:station:SCCF:18:1,2015-12-24T12:00:00Z,26.6955,-81.8138,1.49,26.21,2 
SCCF RECON,ioos:station:SCCF:18:1,2015-12-24T13:00:00Z,26.6955,-81.8138,1.49,26.17,2 
SCCF RECON,ioos:station:SCCF:18:1,2015-12-24T14:00:00Z,26.6955,-81.8138,1.49,25.51,2 
SCCF RECON,ioos:station:SCCF:18:1,2015-12-24T15:00:00Z,26.6955,-81.8138,1.49,26.06,2 
SCCF RECON,ioos:station:SCCF:18:1,2015-12-24T16:00:00Z,26.6955,-81.8138,1.49,26.42,2 
SCCF RECON,ioos:station:SCCF:18:1,2015-12-24T17:00:00Z,26.6955,-81.8138,1.49,26.02,2 
SCCF RECON,ioos:station:SCCF:18:1,2015-12-24T18:00:00Z,26.6955,-81.8138,1.49,26.38,2 
SCCF RECON,ioos:station:SCCF:18:1,2015-12-24T19:00:00Z,26.6955,-81.8138,1.49,26.68,2 
SCCF RECON,ioos:station:SCCF:18:1,2015-12-24T20:00:00Z,26.6955,-81.8138,1.49,26.69,2 
SCCF RECON,ioos:station:SCCF:18:1,2015-12-24T21:00:00Z,26.6955,-81.8138,1.49,26.98,2 
SCCF RECON,ioos:station:SCCF:18:1,2015-12-24T22:00:00Z,26.6955,-81.8138,1.49,26.94,2 
SCCF RECON,ioos:station:SCCF:18:1,2015-12-24T23:00:00Z,26.6955,-81.8138,1.49,26.89,2 
SCCF RECON,ioos:station:SCCF:18:1,2015-12-25T00:00:00Z,26.6955,-81.8138,1.49,26.74,2 
SCCF RECON,ioos:station:SCCF:18:1,2015-12-25T01:00:00Z,26.6955,-81.8138,1.49,26.92,2 
SCCF RECON,ioos:station:SCCF:18:1,2015-12-25T02:00:00Z,26.6955,-81.8138,1.49,26.96,2 
SCCF RECON,ioos:station:SCCF:18:1,2015-12-25T03:00:00Z,26.6955,-81.8138,1.49,27.22,2 
SCCF RECON,ioos:station:SCCF:18:1,2015-12-25T04:00:00Z,26.6955,-81.8138,1.49,26.37,2 
SCCF RECON,ioos:station:SCCF:18:1,2015-12-25T05:00:00Z,26.6955,-81.8138,1.49,26.17,2 
SCCF RECON,ioos:station:SCCF:18:1,2015-12-25T06:00:00Z,26.6955,-81.8138,1.49,26.15,2 
SCCF RECON,ioos:station:SCCF:18:1,2015-12-25T07:00:00Z,26.6955,-81.8138,1.49,25.71,2 
SCCF RECON,ioos:station:SCCF:18:1,2015-12-25T08:00:00Z,26.6955,-81.8138,1.49,25.67,2 
SCCF RECON,ioos:station:SCCF:18:1,2015-12-25T09:00:00Z,26.6955,-81.8138,1.49,26.01,2 
SCCF RECON,ioos:station:SCCF:18:1,2015-12-25T10:00:00Z,26.6955,-81.8138,1.49,26.6,2 
SCCF RECON,ioos:station:SCCF:18:1,2015-12-25T11:00:00Z,26.6955,-81.8138,1.49,26.8,2 
SCCF RECON,ioos:station:SCCF:18:1,2015-12-25T12:00:00Z,26.6955,-81.8138,1.49,26.8,2 
SCCF RECON,ioos:station:SCCF:18:1,2015-12-25T13:00:00Z,26.6955,-81.8138,1.49,26.31,2 
SCCF RECON,ioos:station:SCCF:18:1,2015-12-25T14:00:00Z,26.6955,-81.8138,1.49,26.43,2 
SCCF RECON,ioos:station:SCCF:18:1,2015-12-25T15:00:00Z,26.6955,-81.8138,1.49,25.72,2 
SCCF RECON,ioos:station:SCCF:18:1,2015-12-25T16:00:00Z,26.6955,-81.8138,1.49,25.75,2 
SCCF RECON,ioos:station:SCCF:18:1,2015-12-25T17:00:00Z,26.6955,-81.8138,1.49,26.49,2 
SCCF RECON,ioos:station:SCCF:18:1,2015-12-25T18:00:00Z,26.6955,-81.8138,1.49,26.44,2 
SCCF RECON,ioos:station:SCCF:18:1,2015-12-25T19:00:00Z,26.6955,-81.8138,1.49,26.94,2 
SCCF RECON,ioos:station:SCCF:18:1,2015-12-25T20:00:00Z,26.6955,-81.8138,1.49,27.01,2 
SCCF RECON,ioos:station:SCCF:18:1,2015-12-25T21:00:00Z,26.6955,-81.8138,1.49,27.12,2 
SCCF RECON,ioos:station:SCCF:18:1,2015-12-25T22:00:00Z,26.6955,-81.8138,1.49,26.89,2 
SCCF RECON,ioos:station:SCCF:18:1,2015-12-25T23:00:00Z,26.6955,-81.8138,1.49,27.05,2 
SCCF RECON,ioos:station:SCCF:18:1,2015-12-26T00:00:00Z,26.6955,-81.8138,1.49,26.94,2 
SCCF RECON,ioos:station:SCCF:18:1,2015-12-26T01:00:00Z,26.6955,-81.8138,1.49,26.99,2 
SCCF RECON,ioos:station:SCCF:18:1,2015-12-26T02:00:00Z,26.6955,-81.8138,1.49,26.74,2 
SCCF RECON,ioos:station:SCCF:18:1,2015-12-26T03:00:00Z,26.6955,-81.8138,1.49,26.93,2 
SCCF RECON,ioos:station:SCCF:18:1,2015-12-26T04:00:00Z,26.6955,-81.8138,1.49,26.94,2 
SCCF RECON,ioos:station:SCCF:18:1,2015-12-26T05:00:00Z,26.6955,-81.8138,1.49,26.77,2 
SCCF RECON,ioos:station:SCCF:18:1,2015-12-26T06:00:00Z,26.6955,-81.8138,1.49,26.46,2 
SCCF RECON,ioos:station:SCCF:18:1,2015-12-26T07:00:00Z,26.6955,-81.8138,1.49,26.2,2 
SCCF RECON,ioos:station:SCCF:18:1,2015-12-26T08:00:00Z,26.6955,-81.8138,1.49,26.14,2 
SCCF RECON,ioos:station:SCCF:18:1,2015-12-26T09:00:00Z,26.6955,-81.8138,1.49,26.08,2 
SCCF RECON,ioos:station:SCCF:18:1,2015-12-26T10:00:00Z,26.6955,-81.8138,1.49,26.34,2 
SCCF RECON,ioos:station:SCCF:18:1,2015-12-26T11:00:00Z,26.6955,-81.8138,1.49,26.43,2 
SCCF RECON,ioos:station:SCCF:18:1,2015-12-26T12:00:00Z,26.6955,-81.8138,1.49,26.36,2 
SCCF RECON,ioos:station:SCCF:18:1,2015-12-26T13:00:00Z,26.6955,-81.8138,1.49,26.44,2 
SCCF RECON,ioos:station:SCCF:18:1,2015-12-26T14:00:00Z,26.6955,-81.8138,1.49,26.1,2 
SCCF RECON,ioos:station:SCCF:18:1,2015-12-26T15:00:00Z,26.6955,-81.8138,1.49,25.95,2 
SCCF RECON,ioos:station:SCCF:18:1,2015-12-26T16:00:00Z,26.6955,-81.8138,1.49,25.44,2 
SCCF RECON,ioos:station:SCCF:18:1,2015-12-26T17:00:00Z,26.6955,-81.8138,1.49,25.87,2 
SCCF RECON,ioos:station:SCCF:18:1,2015-12-26T18:00:00Z,26.6955,-81.8138,1.49,24.98,2 
SCCF RECON,ioos:station:SCCF:18:1,2015-12-26T19:00:00Z,26.6955,-81.8138,1.49,25.88,2 
SCCF RECON,ioos:station:SCCF:18:1,2015-12-26T20:00:00Z,26.6955,-81.8138,1.49,25.99,2 
SCCF RECON,ioos:station:SCCF:18:1,2015-12-26T21:00:00Z,26.6955,-81.8138,1.49,26.09,2 
SCCF RECON,ioos:station:SCCF:18:1,2015-12-26T22:00:00Z,26.6955,-81.8138,1.49,26.29,2 
SCCF RECON,ioos:station:SCCF:18:1,2015-12-26T23:00:00Z,26.6955,-81.8138,1.49,26.04,2 
SCCF RECON,ioos:station:SCCF:18:1,2015-12-27T00:00:00Z,26.6955,-81.8138,1.49,26.15,2 
SCCF RECON,ioos:station:SCCF:18:1,2015-12-27T01:00:00Z,26.6955,-81.8138,1.49,26.17,2 
SCCF RECON,ioos:station:SCCF:18:1,2015-12-27T02:00:00Z,26.6955,-81.8138,1.49,26.57,2 
SCCF RECON,ioos:station:SCCF:18:1,2015-12-27T03:00:00Z,26.6955,-81.8138,1.49,26.51,2 
SCCF RECON,ioos:station:SCCF:18:1,2015-12-27T04:00:00Z,26.6955,-81.8138,1.49,26.34,2 
SCCF RECON,ioos:station:SCCF:18:1,2015-12-27T05:00:00Z,26.6955,-81.8138,1.49,25.38,2 
SCCF RECON,ioos:station:SCCF:18:1,2015-12-27T06:00:00Z,26.6955,-81.8138,1.49,26.11,2 
SCCF RECON,ioos:station:SCCF:18:1,2015-12-27T07:00:00Z,26.6955,-81.8138,1.49,26.16,2 
SCCF RECON,ioos:station:SCCF:18:1,2015-12-27T08:00:00Z,26.6955,-81.8138,1.49,26.08,2 
SCCF RECON,ioos:station:SCCF:18:1,2015-12-27T09:00:00Z,26.6955,-81.8138,1.49,25.92,2 
SCCF RECON,ioos:station:SCCF:18:1,2015-12-27T10:00:00Z,26.6955,-81.8138,1.49,25.93,2 
SCCF RECON,ioos:station:SCCF:18:1,2015-12-27T11:00:00Z,26.6955,-81.8138,1.49,25.9,2 
SCCF RECON,ioos:station:SCCF:18:1,2015-12-27T12:00:00Z,26.6955,-81.8138,1.49,26.29,2 
SCCF RECON,ioos:station:SCCF:18:1,2015-12-27T13:00:00Z,26.6955,-81.8138,1.49,24.91,2 
SCCF RECON,ioos:station:SCCF:18:1,2015-12-27T14:00:00Z,26.6955,-81.8138,1.49,25.42,2 
SCCF RECON,ioos:station:SCCF:18:1,2015-12-27T15:00:00Z,26.6955,-81.8138,1.49,25.66,2 
SCCF RECON,ioos:station:SCCF:18:1,2015-12-27T16:00:00Z,26.6955,-81.8138,1.49,25.7,2 
SCCF RECON,ioos:station:SCCF:18:1,2015-12-27T17:00:00Z,26.6955,-81.8138,1.49,25.53,2 
SCCF RECON,ioos:station:SCCF:18:1,2015-12-27T18:00:00Z,26.6955,-81.8138,1.49,25.62,2 
SCCF RECON,ioos:station:SCCF:18:1,2015-12-27T19:00:00Z,26.6955,-81.8138,1.49,25.68,2 
SCCF RECON,ioos:station:SCCF:18:1,2015-12-27T20:00:00Z,26.6955,-81.8138,1.49,26.14,2 
SCCF RECON,ioos:station:SCCF:18:1,2015-12-27T21:00:00Z,26.6955,-81.8138,1.49,26.01,2 
SCCF RECON,ioos:station:SCCF:18:1,2015-12-27T22:00:00Z,26.6955,-81.8138,1.49,26.08,2 
SCCF RECON,ioos:station:SCCF:18:1,2015-12-27T23:00:00Z,26.6955,-81.8138,1.49,26.21,2 
SCCF RECON,ioos:station:SCCF:18:1,2015-12-28T00:00:00Z,26.6955,-81.8138,1.49,25.96,2 
SCCF RECON,ioos:station:SCCF:18:1,2015-12-28T01:00:00Z,26.6955,-81.8138,1.49,25.52,2 
SCCF RECON,ioos:station:SCCF:18:1,2015-12-28T02:00:00Z,26.6955,-81.8138,1.49,25.79,2 
SCCF RECON,ioos:station:SCCF:18:1,2015-12-28T03:00:00Z,26.6955,-81.8138,1.49,26.08,2 
SCCF RECON,ioos:station:SCCF:18:1,2015-12-28T04:00:00Z,26.6955,-81.8138,1.49,26.23,2 
SCCF RECON,ioos:station:SCCF:18:1,2015-12-28T05:00:00Z,26.6955,-81.8138,1.49,25.67,2 
SCCF RECON,ioos:station:SCCF:18:1,2015-12-28T06:00:00Z,26.6955,-81.8138,1.49,26.19,2 
SCCF RECON,ioos:station:SCCF:18:1,2015-12-28T07:00:00Z,26.6955,-81.8138,1.49,26.15,2 
SCCF RECON,ioos:station:SCCF:18:1,2015-12-28T08:00:00Z,26.6955,-81.8138,1.49,25.9,2 
SCCF RECON,ioos:station:SCCF:18:1,2015-12-28T09:00:00Z,26.6955,-81.8138,1.49,25.64,2 
SCCF RECON,ioos:station:SCCF:18:1,2015-12-28T10:00:00Z,26.6955,-81.8138,1.49,25.71,2 
SCCF RECON,ioos:station:SCCF:18:1,2015-12-28T11:00:00Z,26.6955,-81.8138,1.49,25.89,2 
SCCF RECON,ioos:station:SCCF:18:1,2015-12-28T12:00:00Z,26.6955,-81.8138,1.49,25.89,2 
SCCF RECON,ioos:station:SCCF:18:1,2015-12-28T13:00:00Z,26.6955,-81.8138,1.49,26.37,2 
SCCF RECON,ioos:station:SCCF:18:1,2015-12-28T14:00:00Z,26.6955,-81.8138,1.49,25.64,2 
SCCF RECON,ioos:station:SCCF:18:1,2015-12-28T15:00:00Z,26.6955,-81.8138,1.49,25.96,2 
SCCF RECON,ioos:station:SCCF:18:1,2015-12-28T16:00:00Z,26.6955,-81.8138,1.49,25.92,2 
SCCF RECON,ioos:station:SCCF:18:1,2015-12-28T17:00:00Z,26.6955,-81.8138,1.49,25.96,2 
SCCF RECON,ioos:station:SCCF:18:1,2015-12-28T18:00:00Z,26.6955,-81.8138,1.49,26.31,2 
SCCF RECON,ioos:station:SCCF:18:1,2015-12-28T19:00:00Z,26.6955,-81.8138,1.49,26.18,2 
SCCF RECON,ioos:station:SCCF:18:1,2015-12-28T20:00:00Z,26.6955,-81.8138,1.49,26.22,2 
SCCF RECON,ioos:station:SCCF:18:1,2015-12-28T21:00:00Z,26.6955,-81.8138,1.49,26.6,2 
SCCF RECON,ioos:station:SCCF:18:1,2015-12-28T22:00:00Z,26.6955,-81.8138,1.49,26.42,2 
SCCF RECON,ioos:station:SCCF:18:1,2015-12-28T23:00:00Z,26.6955,-81.8138,1.49,26.67,2 
SCCF RECON,ioos:station:SCCF:18:1,2015-12-29T00:00:00Z,26.6955,-81.8138,1.49,26.7,2 
SCCF RECON,ioos:station:SCCF:18:1,2015-12-29T01:00:00Z,26.6955,-81.8138,1.49,26.51,2 
SCCF RECON,ioos:station:SCCF:18:1,2015-12-29T02:00:00Z,26.6955,-81.8138,1.49,26.25,2 
SCCF RECON,ioos:station:SCCF:18:1,2015-12-29T03:00:00Z,26.6955,-81.8138,1.49,26.31,2 
SCCF RECON,ioos:station:SCCF:18:1,2015-12-29T04:00:00Z,26.6955,-81.8138,1.49,25.62,2 
SCCF RECON,ioos:station:SCCF:18:1,2015-12-29T05:00:00Z,26.6955,-81.8138,1.49,26.08,2 
SCCF RECON,ioos:station:SCCF:18:1,2015-12-29T06:00:00Z,26.6955,-81.8138,1.49,24.82,2 
SCCF RECON,ioos:station:SCCF:18:1,2015-12-29T07:00:00Z,26.6955,-81.8138,1.49,26.49,2 
SCCF RECON,ioos:station:SCCF:18:1,2015-12-29T08:00:00Z,26.6955,-81.8138,1.49,26.18,2 
SCCF RECON,ioos:station:SCCF:18:1,2015-12-29T09:00:00Z,26.6955,-81.8138,1.49,26.15,2 
SCCF RECON,ioos:station:SCCF:18:1,2015-12-29T10:00:00Z,26.6955,-81.8138,1.49,26.04,2 